Location: Alessandria
(44.9000°N, 8.6170°E)
Time: 01:41:11
(UTC+02:00)

ISS - Pass Details

Date: 19 May 2021
Orbit: 417 x 422 km, 51.6° (Epoch: 14 June)

Event Time Altitude Azimuth Distance (km) Brightness Sun altitude
Rises 02:06:32 0° 300° (WNW) 2,371 0.3 -24.5°
Reaches altitude 10° 02:08:40 10° 305° (NW) 1,506 -0.7 -24.5°
Enters shadow 02:09:25 16° 308° (NW) 1,206 -1.2 -24.4°
